Time,TemperatureF,DewpointF,PressureIn,WindDirection,WindDirectionDegrees,WindSpeedMPH,WindSpeedGustMPH,Humidity,HourlyPrecipIn,Conditions,Clouds,dailyrainin,SoftwareType,DateUTC
2013-06-20 00:02:00,75.0,68.0,29.93,South,180,0.0,-999.0,78,-99.99,,,-99.99,,2013-06-20 05:02:00,
2013-06-20 00:12:00,75.0,68.0,29.93,South,180,0.0,-999.0,78,-99.99,,,-99.99,,2013-06-20 05:12:00,
2013-06-20 00:22:00,75.0,68.0,29.94,South,181,0.0,-999.0,78,-99.99,,,-99.99,,2013-06-20 05:22:00,
2013-06-20 00:33:00,75.0,68.0,29.94,South,181,0.0,-999.0,78,-99.99,,,-99.99,,2013-06-20 05:33:00,
2013-06-20 00:44:00,75.0,68.0,29.94,South,181,0.0,-999.0,78,-99.99,,,-99.99,,2013-06-20 05:44:00,
2013-06-20 00:53:00,74.0,67.0,29.94,SSW,193,2.0,-999.0,78,-99.99,,,-99.99,,2013-06-20 05:53:00,
2013-06-20 01:01:00,74.0,67.0,29.94,South,184,0.0,-999.0,79,-99.99,,,-99.99,,2013-06-20 06:01:00,
2013-06-20 01:11:00,74.0,67.0,29.94,South,184,0.0,-999.0,79,-99.99,,,-99.99,,2013-06-20 06:11:00,
2013-06-20 01:22:00,73.0,66.0,29.94,South,184,0.0,-999.0,80,-99.99,,,-99.99,,2013-06-20 06:22:00,
2013-06-20 01:33:00,73.0,67.0,29.94,South,184,0.0,-999.0,81,-99.99,,,-99.99,,2013-06-20 06:33:00,
2013-06-20 01:43:00,73.0,67.0,29.94,South,184,0.0,-999.0,81,-99.99,,,-99.99,,2013-06-20 06:43:00,
2013-06-20 01:53:00,72.0,67.0,29.94,SSE,156,0.0,-999.0,83,-99.99,,,-99.99,,2013-06-20 06:53:00,
2013-06-20 02:01:00,71.0,66.0,29.94,SSE,156,0.0,-999.0,85,-99.99,,,-99.99,,2013-06-20 07:01:00,
2013-06-20 02:12:00,71.0,66.0,29.94,SSE,156,0.0,-999.0,85,-99.99,,,-99.99,,2013-06-20 07:12:00,
2013-06-20 02:22:00,70.0,66.0,29.94,SSE,156,0.0,-999.0,87,-99.99,,,-99.99,,2013-06-20 07:22:00,
2013-06-20 02:34:00,70.0,66.0,29.93,SSW,200,0.0,-999.0,88,-99.99,,,-99.99,,2013-06-20 07:34:00,
2013-06-20 02:44:00,70.0,66.0,29.93,SSW,200,0.0,-999.0,88,-99.99,,,-99.99,,2013-06-20 07:44:00,
2013-06-20 02:53:00,70.0,66.0,29.93,SSW,200,0.0,-999.0,88,-99.99,,,-99.99,,2013-06-20 07:53:00,
2013-06-20 03:02:00,69.0,66.0,29.93,SSW,200,0.0,-999.0,89,-99.99,,,-99.99,,2013-06-20 08:02:00,
2013-06-20 03:11:00,69.0,66.0,29.93,SSW,200,0.0,-999.0,89,-99.99,,,-99.99,,2013-06-20 08:11:00,
2013-06-20 03:22:00,69.0,66.0,29.93,SSW,200,0.0,-999.0,89,-99.99,,,-99.99,,2013-06-20 08:22:00,
2013-06-20 03:34:00,69.0,66.0,29.93,SSW,200,0.0,-999.0,90,-99.99,,,-99.99,,2013-06-20 08:34:00,
2013-06-20 03:43:00,69.0,66.0,29.93,SSW,200,0.0,-999.0,90,-99.99,,,-99.99,,2013-06-20 08:43:00,
2013-06-20 03:53:00,69.0,66.0,29.92,SSW,200,0.0,-999.0,90,-99.99,,,-99.99,,2013-06-20 08:53:00,
2013-06-20 04:01:00,69.0,66.0,29.93,SSW,199,0.0,-999.0,90,-99.99,,,-99.99,,2013-06-20 09:01:00,
2013-06-20 04:12:00,69.0,66.0,29.93,SSW,199,0.0,-999.0,90,-99.99,,,-99.99,,2013-06-20 09:12:00,
2013-06-20 04:22:00,69.0,66.0,29.93,SSW,199,0.0,-999.0,91,-99.99,,,-99.99,,2013-06-20 09:22:00,
2013-06-20 04:33:00,69.0,66.0,29.93,SSW,199,0.0,-999.0,91,-99.99,,,-99.99,,2013-06-20 09:33:00,
2013-06-20 04:42:00,69.0,66.0,29.93,SSW,199,0.0,-999.0,91,-99.99,,,-99.99,,2013-06-20 09:42:00,
2013-06-20 04:52:00,68.0,65.0,29.93,SSW,199,0.0,-999.0,91,-99.99,,,-99.99,,2013-06-20 09:52:00,
2013-06-20 05:01:00,68.0,65.0,29.92,SSW,199,0.0,-999.0,91,-99.99,,,-99.99,,2013-06-20 10:01:00,
2013-06-20 05:11:00,68.0,65.0,29.92,SSW,199,0.0,-999.0,91,-99.99,,,-99.99,,2013-06-20 10:11:00,
2013-06-20 05:22:00,68.0,66.0,29.92,SSW,199,0.0,-999.0,92,-99.99,,,-99.99,,2013-06-20 10:22:00,
2013-06-20 05:33:00,69.0,67.0,29.93,SSW,199,0.0,-999.0,92,-99.99,,,-99.99,,2013-06-20 10:33:00,
2013-06-20 05:43:00,69.0,67.0,29.93,SSW,199,0.0,-999.0,92,-99.99,,,-99.99,,2013-06-20 10:43:00,
2013-06-20 05:53:00,69.0,67.0,29.92,SSW,199,0.0,-999.0,92,-99.99,,,-99.99,,2013-06-20 10:53:00,
2013-06-20 06:02:00,69.0,66.0,29.93,SSW,200,0.0,-999.0,91,-99.99,,,-99.99,,2013-06-20 11:02:00,
2013-06-20 06:11:00,69.0,66.0,29.93,SSW,200,0.0,-999.0,91,-99.99,,,-99.99,,2013-06-20 11:11:00,
2013-06-20 06:22:00,69.0,66.0,29.93,SSW,200,0.0,-999.0,91,-99.99,,,-99.99,,2013-06-20 11:22:00,
2013-06-20 06:34:00,69.0,66.0,29.93,SSW,200,0.0,-999.0,91,-99.99,,,-99.99,,2013-06-20 11:34:00,
2013-06-20 06:42:00,69.0,66.0,29.93,SSW,200,0.0,-999.0,91,-99.99,,,-99.99,,2013-06-20 11:42:00,
2013-06-20 06:53:00,69.0,66.0,29.93,SSW,199,0.0,-999.0,91,-99.99,,,-99.99,,2013-06-20 11:53:00,
2013-06-20 07:02:00,70.0,67.0,29.93,SSW,199,0.0,-999.0,91,-99.99,,,-99.99,,2013-06-20 12:02:00,
2013-06-20 07:11:00,70.0,67.0,29.93,SSW,199,0.0,-999.0,91,-99.99,,,-99.99,,2013-06-20 12:11:00,
2013-06-20 07:22:00,71.0,68.0,29.94,SSW,199,0.0,-999.0,90,-99.99,,,-99.99,,2013-06-20 12:22:00,
2013-06-20 07:34:00,72.0,68.0,29.94,SSW,199,0.0,-999.0,88,-99.99,,,-99.99,,2013-06-20 12:34:00,
2013-06-20 07:43:00,72.0,68.0,29.94,SSW,199,0.0,-999.0,88,-99.99,,,-99.99,,2013-06-20 12:43:00,
2013-06-20 07:53:00,73.0,69.0,29.95,SSW,196,0.0,-999.0,86,-99.99,,,-99.99,,2013-06-20 12:53:00,
2013-06-20 08:02:00,73.0,69.0,29.95,SSW,196,0.0,-999.0,86,-99.99,,,-99.99,,2013-06-20 13:02:00,
2013-06-20 08:11:00,73.0,69.0,29.95,SSW,196,0.0,-999.0,86,-99.99,,,-99.99,,2013-06-20 13:11:00,
2013-06-20 08:22:00,75.0,68.0,29.95,South,180,3.0,-999.0,80,-99.99,,,-99.99,,2013-06-20 13:22:00,
2013-06-20 08:33:00,75.0,69.0,29.95,South,181,1.0,-999.0,81,-99.99,,,-99.99,,2013-06-20 13:33:00,
2013-06-20 08:42:00,75.0,69.0,29.95,South,181,1.0,-999.0,81,-99.99,,,-99.99,,2013-06-20 13:42:00,
2013-06-20 08:53:00,76.0,70.0,29.94,South,186,2.0,-999.0,81,-99.99,,,-99.99,,2013-06-20 13:53:00,
2013-06-20 09:01:00,77.0,70.0,29.94,South,180,4.0,-999.0,78,-99.99,,,-99.99,,2013-06-20 14:01:00,
2013-06-20 09:11:00,77.0,70.0,29.94,South,180,4.0,-999.0,78,-99.99,,,-99.99,,2013-06-20 14:11:00,
2013-06-20 09:22:00,78.0,70.0,29.94,South,180,3.0,-999.0,76,-99.99,,,-99.99,,2013-06-20 14:22:00,
2013-06-20 09:32:00,79.0,70.0,29.93,South,178,7.0,-999.0,74,-99.99,,,-99.99,,2013-06-20 14:32:00,
2013-06-20 09:42:00,79.0,70.0,29.93,South,178,7.0,-999.0,74,-99.99,,,-99.99,,2013-06-20 14:42:00,
2013-06-20 09:53:00,80.0,70.0,29.93,SSE,161,6.0,-999.0,72,-99.99,,,-99.99,,2013-06-20 14:53:00,
2013-06-20 10:02:00,80.0,70.0,29.93,South,169,8.0,-999.0,72,-99.99,,,-99.99,,2013-06-20 15:02:00,
2013-06-20 10:11:00,80.0,70.0,29.93,South,169,8.0,-999.0,72,-99.99,,,-99.99,,2013-06-20 15:11:00,
2013-06-20 10:22:00,81.0,71.0,29.93,SSE,165,6.0,-999.0,72,-99.99,,,-99.99,,2013-06-20 15:22:00,
2013-06-20 10:33:00,82.0,72.0,29.93,South,175,7.0,-999.0,71,-99.99,,,-99.99,,2013-06-20 15:33:00,
2013-06-20 10:43:00,82.0,72.0,29.93,South,175,7.0,-999.0,71,-99.99,,,-99.99,,2013-06-20 15:43:00,
2013-06-20 10:53:00,82.0,72.0,29.93,SSE,168,8.0,-999.0,71,-99.99,,,-99.99,,2013-06-20 15:53:00,
2013-06-20 11:01:00,83.0,72.0,29.92,South,174,9.0,-999.0,69,-99.99,,,-99.99,,2013-06-20 16:01:00,
2013-06-20 11:11:00,83.0,72.0,29.92,South,174,9.0,-999.0,69,-99.99,,,-99.99,,2013-06-20 16:11:00,
2013-06-20 11:22:00,84.0,73.0,29.92,South,179,8.0,-999.0,69,-99.99,,,-99.99,,2013-06-20 16:22:00,
2013-06-20 11:33:00,84.0,72.0,29.91,South,181,11.0,-999.0,67,-99.99,,,-99.99,,2013-06-20 16:33:00,
2013-06-20 11:42:00,84.0,72.0,29.91,South,181,11.0,-999.0,67,-99.99,,,-99.99,,2013-06-20 16:42:00,
2013-06-20 11:52:00,84.0,72.0,29.91,South,175,4.0,-999.0,67,-99.99,,,-99.99,,2013-06-20 16:52:00,
2013-06-20 12:01:00,84.0,72.0,29.91,South,169,8.0,-999.0,68,-99.99,,,-99.99,,2013-06-20 17:01:00,
2013-06-20 12:11:00,84.0,72.0,29.91,South,169,8.0,-999.0,68,-99.99,,,-99.99,,2013-06-20 17:11:00,
2013-06-20 12:22:00,85.0,72.0,29.91,South,178,7.0,-999.0,66,-99.99,,,-99.99,,2013-06-20 17:22:00,
2013-06-20 12:32:00,86.0,74.0,29.90,South,187,10.0,-999.0,67,-99.99,,,-99.99,,2013-06-20 17:32:00,
2013-06-20 12:43:00,86.0,74.0,29.90,South,187,10.0,-999.0,67,-99.99,,,-99.99,,2013-06-20 17:43:00,
2013-06-20 12:53:00,87.0,73.0,29.90,South,173,8.0,-999.0,64,-99.99,,,-99.99,,2013-06-20 17:53:00,
2013-06-20 13:01:00,85.0,72.0,29.89,SSE,147,10.0,-999.0,65,-99.99,,,-99.99,,2013-06-20 18:01:00,
2013-06-20 13:11:00,85.0,72.0,29.89,SSE,147,10.0,-999.0,65,-99.99,,,-99.99,,2013-06-20 18:11:00,
2013-06-20 13:22:00,85.0,73.0,29.89,South,184,6.0,-999.0,68,-99.99,,,-99.99,,2013-06-20 18:22:00,
2013-06-20 13:33:00,87.0,73.0,29.88,South,171,9.0,-999.0,63,-99.99,,,-99.99,,2013-06-20 18:33:00,
2013-06-20 13:43:00,87.0,73.0,29.88,South,171,9.0,-999.0,63,-99.99,,,-99.99,,2013-06-20 18:43:00,
2013-06-20 13:53:00,87.0,73.0,29.88,SSE,157,12.0,-999.0,63,-99.99,,,-99.99,,2013-06-20 18:53:00,
2013-06-20 14:01:00,88.0,73.0,29.88,South,171,12.0,-999.0,62,-99.99,,,-99.99,,2013-06-20 19:01:00,
2013-06-20 14:11:00,88.0,73.0,29.88,South,171,12.0,-999.0,62,-99.99,,,-99.99,,2013-06-20 19:11:00,
2013-06-20 14:22:00,89.0,74.0,29.87,South,180,11.0,-999.0,62,-99.99,,,-99.99,,2013-06-20 19:22:00,
2013-06-20 14:34:00,89.0,73.0,29.87,South,172,11.0,-999.0,60,-99.99,,,-99.99,,2013-06-20 19:34:00,
2013-06-20 14:43:00,89.0,73.0,29.87,South,172,11.0,-999.0,60,-99.99,,,-99.99,,2013-06-20 19:43:00,
2013-06-20 14:52:00,89.0,73.0,29.87,South,179,9.0,-999.0,60,-99.99,,,-99.99,,2013-06-20 19:52:00,
2013-06-20 15:02:00,89.0,73.0,29.87,South,170,9.0,-999.0,60,-99.99,,,-99.99,,2013-06-20 20:02:00,
2013-06-20 15:11:00,89.0,73.0,29.87,South,170,9.0,-999.0,60,-99.99,,,-99.99,,2013-06-20 20:11:00,
2013-06-20 15:22:00,89.0,75.0,29.86,South,173,8.0,-999.0,63,-99.99,,,-99.99,,2013-06-20 20:22:00,
2013-06-20 15:33:00,89.0,74.0,29.85,SSE,163,10.0,-999.0,62,-99.99,,,-99.99,,2013-06-20 20:33:00,
2013-06-20 15:42:00,89.0,74.0,29.85,SSE,163,10.0,-999.0,62,-99.99,,,-99.99,,2013-06-20 20:42:00,
2013-06-20 15:52:00,89.0,74.0,29.85,SSE,165,8.0,-999.0,62,-99.99,,,-99.99,,2013-06-20 20:52:00,
2013-06-20 16:01:00,90.0,74.0,29.84,South,177,9.0,-999.0,60,-99.99,,,-99.99,,2013-06-20 21:01:00,
2013-06-20 19:11:00,88.0,74.0,29.81,South,182,7.0,-999.0,64,-99.99,,,-99.99,,2013-06-21 00:11:00,